Wind_Speed
48 47 47 47 47 47 48 48 49 50 51 52 54 56 58 60 62 63 64 65 66 67 68 69 70 71 71 72 73 75 76 77 78 79 81 82 83 84
49 48 48 48 48 49 50 50 51 52 54 55 57 59 62 64 65 66 67 68 69 70 71 71 72 73 75 76 78 80 81 83 84 85 87 88 90 91
49 49 48 51 51 51 52 53 54 55 56 58 60 63 65 66 68 69 70 71 72 73 74 75 77 78 80 82 83 85 85 86 87 88 90 91 92 92
49 49 50 52 52 54 55 56 57 58 59 61 63 66 67 69 70 70 71 73 74 76 78 80 82 83 84 85 85 85 86 86 87 87 87 88 87 87
49 49 51 52 54 56 57 58 60 62 64 65 66 68 69 70 71 72 73 75 77 79 81 82 83 84 84 84 84 84 84 83 83 82 81 79 78 76
48 49 52 54 57 58 60 62 63 65 66 67 67 68 69 71 73 73 74 76 78 81 82 82 82 82 82 82 81 80 79 77 75 73 71 70 68 67
47 49 53 56 58 61 63 64 66 66 67 68 68 69 70 72 74 75 76 77 78 80 79 80 81 81 80 79 78 76 74 72 70 68 66 64 62 61
47 50 53 57 59 62 64 65 65 66 67 68 69 70 72 74 75 76 77 77 76 77 76 75 76 73 72 70 69 69 69 67 66 63 61 60 58 57
48 51 55 58 60 61 63 64 65 67 69 69 71 73 74 76 77 77 76 75 73 72 69 65 65 64 62 62 62 63 63 62 60 58 56 53 52 51
50 52 54 57 59 61 63 64 65 68 70 72 74 75 77 77 76 74 71 68 64 63 63 59 57 56 55 55 57 58 58 57 54 52 49 47 46 44
47 50 53 56 59 60 62 64 66 69 72 74 75 76 75 74 71 67 63 59 56 55 57 54 51 50 48 48 49 51 51 50 48 45 42 40 38 37
47 50 53 55 58 60 63 65 68 71 73 74 74 73 70 66 62 58 55 53 51 49 49 48 46 45 40 38 41 43 44 45 43 40 37 33 31 30
47 50 53 56 60 63 66 69 71 71 72 71 70 66 61 56 53 51 50 48 47 46 46 44 41 40 38 34 34 37 39 39 38 35 33 29 27 25
47 51 55 59 63 66 69 71 71 70 68 65 59 54 50 47 46 46 45 45 45 45 44 42 39 38 36 33 31 32 34 35 34 31 29 27 25 21
50 54 58 62 66 68 69 68 66 63 58 51 46 43 41 40 41 41 41 42 43 44 42 40 39 38 37 35 32 31 30 30 32 29 27 25 23 20
54 59 62 65 66 66 64 61 56 49 43 39 36 36 36 37 37 37 38 39 39 40 42 41 40 39 37 36 35 32 29 27 27 28 26 25 23 20
58 62 64 63 62 59 54 48 42 37 34 33 32 32 33 33 34 36 37 37 37 37 38 39 39 38 37 37 35 33 30 28 27 26 25 23 24 22
60 61 60 58 54 49 43 38 34 31 29 29 29 29 30 31 33 34 35 36 36 36 37 37 37 35 34 35 38 36 33 30 28 28 26 24 24 25
59 58 55 51 46 41 36 33 29 28 27 27 27 28 29 30 32 33 34 35 35 36 37 38 38 36 32 29 31 36 34 30 28 27 27 26 24 25
57 53 48 44 40 35 31 28 26 26 26 26 27 28 29 31 32 33 34 35 35 34 35 38 39 38 36 32 29 31 35 33 30 27 25 25 25 25
51 46 41 37 33 29 27 25 25 25 26 27 29 29 30 31 32 33 34 35 35 35 35 36 38 39 37 34 31 30 32 34 33 31 27 25 24 25
44 39 35 31 28 25 25 25 25 27 28 29 30 30 31 32 32 33 34 34 35 35 35 35 36 37 36 35 33 32 30 31 32 33 32 29 26 24
37 33 30 27 25 24 25 26 27 28 29 30 31 31 31 32 33 33 34 35 35 34 34 34 34 35 35 34 34 33 31 30 29 29 30 31 29 26
Wind_Direction
276 277 279 280 281 282 284 286 288 288 288 289 291 292 294 295 296 296 295 295 295 294 293 292 291 290 289 287 286 284 283 281 279 278 276 275 273 272
275 277 278 279 279 282 284 286 287 287 288 289 290 292 294 295 295 295 295 296 295 294 293 292 291 290 289 288 286 285 283 282 280 279 277 275 274 272
274 277 277 279 280 281 283 286 287 288 289 291 292 293 294 295 295 296 296 296 296 295 294 294 292 291 290 289 287 286 284 283 282 280 279 277 276 274
273 275 276 277 279 281 284 287 288 289 291 292 294 295 295 296 296 297 297 298 297 296 296 295 294 293 292 290 289 287 286 285 283 282 280 278 277 275
272 274 275 275 280 282 285 287 288 290 292 293 294 295 296 296 297 298 299 299 298 298 297 296 296 295 294 293 292 290 289 287 285 283 281 279 277 275
272 273 275 277 279 281 284 286 288 291 293 294 295 296 296 297 298 299 300 300 299 299 298 298 297 296 296 295 294 292 290 288 286 284 282 279 277 274
271 271 274 277 280 283 285 287 290 292 293 294 295 297 298 299 300 300 301 301 300 299 299 298 298 298 298 297 295 293 291 289 287 285 282 280 277 274
269 272 276 280 281 284 287 290 292 293 294 295 297 298 299 299 301 301 301 301 300 299 299 299 299 300 299 298 296 295 293 291 290 287 284 280 277 273
272 275 278 281 283 287 290 293 294 295 296 297 298 299 300 300 301 302 302 302 302 301 301 301 301 301 301 300 298 297 296 294 292 289 286 283 279 274
275 278 281 285 287 290 292 294 296 296 297 298 299 300 301 302 302 302 302 303 303 302 302 304 303 303 304 302 300 299 299 298 296 293 290 286 281 275
279 283 286 288 291 293 295 296 297 298 298 299 300 301 302 303 303 303 304 304 304 303 304 307 307 307 308 306 304 304 304 305 305 303 299 293 286 277
287 290 292 294 295 296 297 298 298 299 300 300 302 303 303 303 304 305 305 306 306 305 306 309 311 310 311 309 306 306 307 308 310 310 309 305 297 285
293 295 296 298 299 299 300 300 300 300 301 301 303 303 303 304 305 306 308 308 309 310 311 313 315 315 314 313 310 310 311 311 313 313 313 310 304 295
298 299 301 301 302 302 301 301 301 301 302 302 302 302 303 304 306 309 310 311 312 313 314 316 318 319 318 317 314 312 312 313 314 315 314 313 309 300
303 304 305 305 305 304 304 303 303 303 303 303 302 303 303 305 308 311 313 315 316 317 318 320 321 322 321 320 318 316 314 312 313 315 315 314 310 304
309 309 309 309 308 307 307 306 306 305 305 305 304 305 306 308 310 312 315 317 319 319 320 322 322 323 322 320 319 318 317 314 310 309 311 311 309 306
314 314 313 312 312 311 310 310 309 309 308 307 307 308 309 311 313 315 317 319 320 319 320 321 323 324 324 322 321 321 321 319 315 312 311 308 305 302
318 317 317 316 315 315 315 314 313 312 311 311 312 313 314 315 317 318 320 321 321 321 321 322 323 325 326 325 321 321 322 321 317 313 310 307 301 298
321 320 319 318 319 319 318 317 316 316 316 316 317 317 317 318 319 320 322 323 323 323 324 324 326 327 327 326 321 318 319 320 317 313 309 307 301 296
322 321 320 320 321 321 321 321 320 320 319 319 319 319 319 320 320 321 323 324 325 326 326 326 327 329 330 330 328 322 320 321 321 317 311 306 302 297
322 321 322 323 324 325 326 325 324 323 322 321 321 321 321 321 322 323 324 326 328 328 328 328 329 329 330 329 328 325 322 320 320 319 315 309 302 295
322 323 324 326 327 328 328 327 326 325 323 322 322 322 322 323 323 324 326 328 329 329 328 328 328 328 327 327 327 327 324 321 320 319 317 314 309 300
322 323 325 328 329 329 329 328 327 326 325 324 323 323 323 324 325 326 328 329 329 328 328 328 328 329 328 328 328 328 327 325 322 319 316 314 311 305
Height
5707 5707 5705 5703 5701 5699 5696 5694 5691 5688 5685 5680 5676 5672 5667 5663 5658 5653 5648 5643 5638 5633 5627 5622 5617 5612 5608 5604 5600 5596 5592 5588 5585 5582 5580 5578 5576 5574
5696 5695 5694 5691 5689 5687 5684 5681 5679 5675 5672 5668 5663 5658 5653 5647 5641 5636 5631 5625 5619 5614 5608 5602 5597 5592 5586 5581 5576 5571 5566 5562 5558 5554 5551 5548 5546 5544
5685 5683 5682 5680 5677 5675 5672 5669 5665 5662 5658 5654 5648 5643 5637 5630 5624 5618 5612 5606 5599 5592 5585 5579 5574 5568 5562 5555 5549 5543 5538 5532 5527 5523 5519 5515 5513 5511
5673 5672 5670 5668 5665 5662 5659 5655 5651 5647 5643 5638 5633 5626 5620 5613 5607 5601 5594 5586 5578 5570 5563 5555 5548 5540 5533 5526 5520 5514 5507 5501 5496 5491 5486 5483 5480 5477
5662 5661 5659 5656 5653 5650 5646 5642 5637 5632 5627 5622 5616 5610 5603 5595 5590 5583 5575 5566 5557 5548 5539 5531 5522 5513 5504 5497 5490 5484 5477 5470 5464 5459 5455 5452 5450 5448
5652 5650 5648 5644 5641 5637 5632 5627 5622 5616 5610 5605 5599 5592 5585 5577 5570 5564 5557 5546 5536 5524 5515 5506 5496 5486 5477 5470 5463 5455 5448 5441 5436 5431 5428 5425 5423 5422
5641 5639 5636 5632 5628 5623 5618 5613 5607 5600 5594 5588 5582 5575 5567 5558 5551 5543 5536 5527 5516 5502 5494 5482 5471 5463 5452 5443 5434 5426 5419 5414 5410 5406 5403 5400 5399 5398
5629 5627 5623 5619 5615 5610 5604 5598 5591 5584 5577 5571 5564 5556 5548 5539 5531 5522 5514 5506 5497 5484 5474 5464 5449 5442 5431 5421 5411 5401 5394 5389 5385 5381 5378 5376 5375 5374
5618 5615 5611 5607 5602 5596 5589 5582 5575 5566 5560 5553 5546 5537 5529 5520 5512 5503 5492 5483 5473 5460 5453 5448 5433 5424 5414 5402 5392 5382 5375 5368 5363 5359 5356 5354 5353 5352
5607 5603 5598 5593 5587 5582 5575 5568 5559 5550 5542 5534 5526 5517 5508 5499 5490 5482 5473 5465 5456 5442 5432 5430 5420 5410 5400 5388 5376 5366 5358 5351 5345 5341 5338 5336 5334 5334
5595 5590 5586 5580 5574 5567 5561 5553 5544 5534 5524 5514 5505 5496 5487 5477 5469 5462 5455 5447 5441 5430 5417 5412 5405 5397 5388 5375 5363 5352 5343 5336 5331 5326 5323 5320 5318 5318
5583 5578 5573 5566 5559 5552 5544 5536 5527 5517 5506 5495 5485 5475 5466 5458 5451 5445 5438 5431 5424 5418 5407 5400 5392 5382 5378 5367 5355 5344 5334 5327 5320 5316 5312 5309 5306 5305
5571 5565 5559 5552 5544 5535 5527 5518 5508 5498 5487 5476 5466 5457 5449 5442 5436 5429 5423 5417 5410 5403 5395 5388 5381 5371 5363 5358 5349 5338 5329 5321 5315 5309 5304 5300 5297 5295
5559 5553 5545 5537 5527 5518 5508 5498 5487 5477 5468 5458 5450 5442 5436 5430 5424 5418 5411 5404 5397 5390 5383 5375 5369 5361 5354 5347 5341 5333 5324 5316 5310 5304 5299 5295 5291 5288
5546 5538 5529 5520 5509 5498 5487 5477 5467 5458 5449 5442 5436 5431 5425 5420 5415 5409 5402 5395 5387 5379 5372 5365 5358 5352 5344 5337 5332 5325 5319 5312 5304 5299 5295 5290 5286 5283
5531 5522 5512 5501 5489 5478 5467 5457 5448 5441 5435 5430 5426 5421 5416 5411 5406 5400 5394 5387 5380 5372 5363 5356 5350 5343 5336 5329 5322 5317 5311 5306 5301 5294 5290 5286 5282 5279
5516 5505 5494 5482 5471 5460 5450 5441 5435 5430 5426 5421 5417 5413 5408 5403 5397 5392 5386 5379 5373 5366 5359 5350 5343 5335 5328 5320 5314 5308 5303 5298 5293 5289 5285 5281 5277 5274
5500 5488 5477 5466 5456 5446 5438 5431 5426 5422 5418 5414 5410 5405 5401 5396 5390 5384 5378 5372 5365 5358 5351 5344 5337 5331 5324 5315 5306 5300 5296 5291 5287 5282 5277 5275 5272 5268
5485 5474 5463 5453 5444 5436 5429 5423 5419 5415 5411 5407 5403 5399 5394 5389 5383 5378 5371 5365 5358 5351 5343 5335 5328 5322 5317 5312 5304 5293 5287 5284 5280 5276 5271 5267 5264 5261
5472 5461 5452 5443 5435 5428 5422 5417 5413 5410 5406 5402 5397 5393 5388 5383 5377 5371 5365 5358 5352 5345 5338 5329 5321 5314 5307 5302 5298 5290 5281 5275 5271 5268 5264 5260 5256 5253
5460 5450 5442 5434 5428 5422 5417 5413 5409 5405 5401 5396 5392 5387 5382 5376 5370 5364 5358 5351 5344 5338 5331 5324 5316 5308 5301 5295 5290 5285 5278 5269 5263 5258 5255 5252 5249 5245
5450 5442 5435 5428 5423 5418 5414 5409 5405 5401 5396 5391 5386 5381 5375 5370 5364 5358 5351 5345 5338 5332 5325 5318 5311 5303 5296 5289 5283 5278 5272 5265 5258 5251 5245 5241 5238 5236
5443 5436 5429 5424 5419 5414 5410 5405 5401 5396 5391 5386 5380 5375 5369 5363 5357 5351 5345 5338 5332 5326 5320 5313 5306 5298 5290 5283 5276 5270 5264 5258 5252 5246 5240 5233 5229 5226